Date,TemperatureHighF,TemperatureAvgF,TemperatureLowF,DewpointHighF,DewpointAvgF,DewpointLowF,HumidityHigh,HumidityAvg,HumidityLow,PressureMaxIn,PressureMinIn,WindSpeedMaxMPH,WindSpeedAvgMPH,GustSpeedMaxMPH,PrecipitationSumIn
2013-1-11,38,37,36,6,3,1,26,24,21,30.00,29.95,23,9,26,0.00
2013-1-14,30,25,15,25,17,8,84,72,52,30.45,30.26,11,1,14,0.00
2013-1-15,28,16,8,8,4,1,78,62,34,30.66,30.44,9,1,10,0.00
2013-1-18,28,27,27,18,18,18,68,67,65,30.64,30.64,1,0,8,0.00
2013-2-15,56,46,36,24,12,5,56,27,13,30.52,30.33,18,1,18,0.00
2013-2-16,61,43,26,15,10,2,52,29,12,30.59,30.26,8,0,8,0.00
2013-2-17,62,45,25,11,7,2,48,24,9,30.28,29.81,18,2,20,0.00
2013-2-18,56,45,33,19,1,-15,47,19,5,30.18,29.90,17,2,18,0.00
2013-2-19,38,30,26,0,-4,-6,28,23,19,30.20,30.16,5,0,5,0.00
2013-2-20,52,42,35,32,28,16,76,60,26,29.66,29.54,16,2,16,0.00
2013-2-21,49,38,29,28,25,21,91,61,36,30.04,29.62,17,2,21,0.13
2013-2-22,45,37,31,26,22,14,73,57,30,30.22,30.03,16,2,16,0.00
2013-2-23,49,37,23,20,16,11,70,43,25,30.27,29.88,11,1,11,0.00
2013-2-24,45,37,30,26,17,6,87,48,25,30.05,29.75,16,2,19,0.00
2013-2-25,52,39,27,26,14,4,85,41,15,30.27,30.05,14,1,14,0.02
2013-2-26,52,37,26,18,9,-6,65,34,13,30.27,29.95,22,2,22,0.00
2013-2-27,47,36,23,12,8,2,60,33,18,30.47,30.27,9,1,10,0.00
2013-2-28,36,30,27,9,6,3,42,36,28,30.53,30.43,5,0,8,0.00
2013-4-10,50,45,38,27,22,21,53,41,35,30.07,29.98,11,1,12,0.01
2013-4-15,84,74,62,20,16,9,18,12,6,29.63,29.42,24,4,27,0.00
2013-4-16,63,62,60,22,20,17,22,20,17,29.64,29.63,11,2,13,0.00
2013-4-25,79,69,55,32,27,15,36,22,11,30.08,29.73,23,3,24,0.00
2013-4-26,79,64,49,33,23,3,47,26,6,30.11,29.93,11,2,14,0.00
2013-4-27,80,64,47,32,18,-3,48,22,4,30.16,29.94,13,1,14,0.00
2013-4-28,83,66,45,18,10,-7,28,13,3,30.03,29.76,11,1,11,0.00
2013-4-29,88,70,48,24,16,11,29,15,6,29.85,29.59,16,1,16,0.00
2013-4-30,88,74,57,24,17,6,25,13,5,29.70,29.52,18,2,22,0.00
2013-5-1,86,72,52,30,16,-2,42,13,5,30.03,29.63,24,3,24,0.00
2013-5-2,64,52,40,30,20,13,52,30,15,30.44,30.02,19,4,21,0.00
2013-5-3,70,54,36,20,16,10,43,24,11,30.45,30.01,13,2,13,0.00
2013-5-4,79,62,42,19,14,5,39,17,7,30.03,29.78,25,3,27,0.00
2013-5-5,75,63,52,33,21,11,27,20,14,30.04,29.88,31,8,32,0.00
2013-5-6,72,64,56,43,28,17,54,26,18,29.93,29.84,16,3,17,0.00
2013-5-7,79,64,49,36,32,23,56,33,13,29.96,29.74,18,1,18,0.00
2013-5-8,74,68,60,34,23,17,37,19,12,29.93,29.81,15,3,17,0.00
2013-5-9,75,63,50,39,27,21,46,27,15,30.04,29.87,13,1,13,0.00
2013-5-10,72,61,52,44,38,33,63,44,25,30.23,30.00,15,3,17,0.00
2013-5-11,74,61,48,44,39,28,83,49,20,30.29,30.21,17,2,17,0.00
2013-5-12,83,65,46,38,34,28,64,35,14,30.30,30.04,11,1,13,0.00
2013-5-13,85,71,53,37,31,27,47,26,13,30.17,29.95,10,1,11,0.00
2013-5-14,90,71,54,52,30,18,61,25,10,30.00,29.72,14,1,14,0.05
2013-5-15,91,73,63,48,41,27,57,36,11,29.84,29.63,14,1,15,0.00
2013-6-11,104,96,81,28,20,4,13,7,3,29.74,29.58,13,2,14,0.00
2013-7-17,84,76,68,55,52,48,59,43,31,30.16,30.01,16,5,16,0.01
2013-7-18,84,71,64,57,54,52,72,57,35,30.11,29.99,15,2,16,0.00
2013-8-15,85,78,72,58,56,55,56,46,37,29.98,29.93,9,2,9,0.00
2013-8-27,91,83,69,57,52,47,62,35,27,29.97,29.79,9,2,11,0.00
2013-8-28,91,78,66,57,53,49,65,44,28,29.97,29.83,14,2,14,0.00
2013-8-29,89,78,72,60,56,53,57,47,31,30.01,29.90,13,2,15,0.00
2013-8-30,94,81,69,62,56,45,74,45,21,29.98,29.80,13,1,13,0.00
2013-8-31,96,83,69,59,52,43,65,38,20,29.87,29.67,10,1,11,0.00
2013-9-1,96,80,68,64,53,48,86,41,21,29.92,29.70,26,2,26,0.10
2013-9-2,91,79,69,64,56,51,82,47,28,29.96,29.81,12,2,12,0.00
2013-9-3,94,79,68,64,56,49,78,50,23,29.95,29.80,17,1,20,0.40
2013-9-4,92,80,65,62,50,35,78,41,16,30.03,29.88,12,2,12,0.00
2013-9-5,92,79,63,48,43,36,55,30,17,30.04,29.89,10,1,10,0.00
2013-9-6,92,78,62,48,43,40,50,30,18,30.04,29.83,11,1,14,0.00
2013-9-7,93,78,64,64,52,46,63,41,25,29.95,29.77,16,1,17,0.09
2013-9-8,91,77,63,54,51,48,70,44,25,29.89,29.68,14,1,14,0.00
2013-9-9,90,77,64,56,53,45,73,45,25,29.79,29.62,13,2,13,0.00
2013-9-10,75,68,63,63,59,54,93,75,52,29.95,29.76,12,1,12,0.74
2013-9-11,83,71,63,64,60,48,94,71,34,30.02,29.90,18,2,18,0.00
2013-9-12,75,68,63,67,61,56,93,78,66,29.99,29.88,11,2,13,0.37
2013-9-13,76,67,63,63,60,56,93,80,54,29.98,29.86,12,1,13,0.21
2013-9-14,77,66,60,62,59,56,94,77,53,29.95,29.83,11,1,15,0.91
2013-9-15,80,68,58,61,56,51,93,69,38,30.02,29.91,12,1,12,0.21
2013-9-16,81,70,58,58,55,51,89,63,38,30.09,29.94,10,1,10,0.00
2013-9-17,84,72,60,60,57,52,88,61,36,30.00,29.78,13,1,13,0.00
2013-9-18,85,74,67,61,58,52,76,58,35,29.83,29.68,11,1,11,0.00
2013-9-19,87,73,62,62,56,46,91,58,25,29.83,29.73,8,1,8,0.07
2013-9-20,84,72,63,55,52,43,65,51,36,29.94,29.82,26,4,26,0.00
2013-9-21,82,70,58,58,54,51,87,59,36,29.97,29.77,11,2,11,0.00
2013-9-22,82,69,60,58,53,40,89,59,30,29.82,29.48,25,3,25,0.43
2013-9-23,76,63,48,42,37,32,75,41,21,30.04,29.69,14,1,16,0.00
2013-9-24,78,64,49,47,43,39,77,49,25,30.14,29.93,9,1,10,0.00
2013-9-25,86,69,51,48,44,36,81,44,22,29.93,29.61,16,2,18,0.00
2013-9-26,84,71,56,46,41,34,67,38,18,29.73,29.59,13,2,21,0.00
2013-9-27,75,64,50,52,43,34,54,46,40,29.99,29.64,15,2,16,0.00
2013-9-28,72,56,40,34,29,19,72,40,14,30.25,29.99,3,0,8,0.00
2013-9-29,78,60,42,37,31,24,70,39,14,30.25,30.02,9,0,9,0.00
2013-9-30,84,65,47,38,34,27,64,36,14,30.04,29.82,7,0,9,0.00
2013-10-1,87,66,48,40,32,21,64,33,10,29.98,29.84,7,1,7,0.00
2013-10-2,82,66,47,38,33,24,62,33,12,29.99,29.82,6,1,8,0.00
2013-10-3,80,66,48,40,35,27,67,36,15,29.88,29.66,14,1,14,0.00
2013-10-4,68,59,50,36,24,12,47,28,14,30.12,29.75,14,2,16,0.00
2013-10-5,66,53,41,26,22,16,51,31,15,30.31,30.12,12,1,12,0.00
2013-10-6,72,55,39,33,25,20,57,34,15,30.39,30.23,8,1,8,0.00
2013-10-7,77,59,41,32,28,22,64,35,14,30.32,30.07,8,1,9,0.00
2013-10-8,80,64,47,36,32,29,61,34,17,30.07,29.78,10,1,11,0.00
2013-10-9,77,64,47,40,35,28,65,37,17,29.88,29.74,15,2,15,0.00
2013-10-10,72,58,46,49,38,29,75,47,27,29.97,29.63,23,3,30,0.10
2013-10-11,66,52,37,35,33,31,83,52,29,30.12,29.96,9,1,10,0.00
2013-10-12,72,56,41,40,36,33,78,50,25,30.22,30.04,15,2,16,0.00
2013-10-13,80,64,48,45,41,36,70,45,21,30.12,29.84,19,2,20,0.00
2013-10-14,71,61,49,46,32,20,73,38,16,30.02,29.87,14,2,17,0.00
2013-10-15,68,54,40,34,30,24,61,42,28,30.11,29.93,26,5,30,0.00
2013-10-16,64,53,46,37,30,16,64,43,20,30.16,30.03,22,3,25,0.00
2013-10-17,67,51,34,29,24,19,66,37,18,30.23,29.99,9,0,10,0.00
2013-10-18,67,52,36,28,22,15,66,35,14,30.21,30.01,14,1,17,0.00
2013-10-19,66,50,34,31,26,20,80,45,18,30.28,30.08,9,1,10,0.00
2013-10-20,73,55,36,29,22,14,62,32,12,30.13,29.89,10,0,13,0.00
2013-10-21,61,52,44,34,31,20,61,46,26,30.15,30.00,18,3,18,0.00
2013-11-4,68,62,54,45,39,34,65,43,30,29.94,29.74,14,3,14,0.00
2013-11-5,57,48,36,46,34,18,91,62,40,30.34,29.77,12,1,13,0.16
2013-11-6,52,37,28,21,18,15,69,48,25,30.57,30.34,7,0,8,0.00
2013-11-13,57,51,41,40,38,34,76,62,50,30.59,30.24,8,1,9,0.00
2013-11-14,62,48,38,42,37,32,90,66,37,30.24,30.01,7,0,7,0.00
2013-11-15,63,48,35,47,36,28,90,65,37,30.01,29.75,18,2,20,0.20
2013-11-16,62,53,44,46,39,30,91,62,37,29.89,29.66,15,1,15,0.01
2013-11-17,63,51,38,36,33,31,79,52,34,30.21,29.88,19,1,19,0.00
2013-11-18,59,45,36,34,32,30,80,62,35,30.33,30.19,5,0,7,0.00
2013-11-19,64,48,33,38,34,29,87,62,34,30.25,29.95,7,0,7,0.00
2013-11-20,51,46,41,44,39,31,93,76,55,30.03,29.93,8,0,8,0.21
2013-11-21,58,49,43,47,44,38,94,84,61,30.16,30.02,15,1,17,0.24
2013-11-22,42,36,31,38,27,23,83,70,65,30.54,30.14,32,10,32,0.03
2013-11-23,39,34,28,32,25,20,88,69,56,30.61,30.47,31,10,32,0.00
2013-11-24,36,31,24,27,22,16,85,71,60,30.57,30.34,25,4,25,0.00
2013-11-25,50,37,29,32,29,26,89,74,47,30.52,30.30,10,1,10,0.01
2013-11-26,50,38,27,31,28,24,89,71,47,30.63,30.51,6,0,7,0.01
2013-11-27,48,38,27,30,28,24,88,69,47,30.57,30.37,7,0,7,0.00
2013-11-28,51,38,27,29,27,24,89,66,38,30.47,30.34,8,0,8,0.00
2013-11-29,56,40,28,33,29,25,88,67,38,30.54,30.39,5,0,5,0.00
2013-11-30,58,43,31,34,31,28,86,66,39,30.48,30.31,5,0,6,0.00
2013-12-1,53,41,35,34,31,28,83,68,47,30.44,30.32,11,1,12,0.00
2013-12-2,55,42,33,31,29,26,77,61,39,30.36,29.99,8,0,10,0.00
2013-12-3,67,45,33,31,26,15,78,52,14,30.00,29.70,12,1,13,0.00
2013-12-10,36,29,17,12,8,4,65,43,26,30.78,30.58,5,1,5,0.00
2013-12-11,46,30,18,20,14,10,73,54,27,30.78,30.61,6,0,6,0.00
2013-12-12,45,33,24,22,18,13,71,56,39,30.76,30.35,7,0,7,0.00
2013-12-13,52,38,32,34,28,21,87,69,48,30.35,30.12,10,1,11,0.00